Weather Roundup
Issued by NWS

Home | Current Version | Previous Version | Text Only | Print | Product List | Glossary On
Versions: 1 2 3 4 5 6 7 8 9 10 11 12 13 14 15 16 17 18 19 20 21 22 23 24 25 26 27 28 29 30 31 32 33 34 35 36 37 38 39 40 41 42 43 44 45 46 47 48 49 50
000
NZUS93 KARX 231410
HRRWXR

CURRENT HOURLY OBSERVATIONS ACROSS
MUCH OF THE UPPER MISSISSIPPI VALLEY
NATIONAL WEATHER SERVICE LA CROSSE WI
900 AM CDT TUE MAY 23 2017


...SOUTHEAST MINNESOTA...


CITY           SKY/WX    TMP DP  RH WIND       PRES   REMARKS
ROCHESTER      CLOUDY    50  48  93 NW8       29.81S
ROCHESTER/MAYO CLOUDY    51  48  90 NW6       29.80S
WINONA         CLOUDY    54  52  94 N3        29.79S
AUSTIN         LGT RAIN  50  46  87 NW7       29.81S
ALBERT LEA     PTSUNNY   50  48  93 NW6       29.82S
DODGE CENTER   CLOUDY    52  48  87 N6        29.81S
PRESTON        DRIZZLE   48  47  94 N5        29.80S
OWATONNA       LGT RAIN  50  46  87 NW6       29.83R
FARIBAULT      LGT RAIN  50  46  87 NW6       29.83R
$$

...ELSEWHERE IN MINNESOTA...


CITY           SKY/WX    TMP DP  RH WIND       PRES   REMARKS
MINNEAPOLIS    CLOUDY    54  46  74 N5        29.82S
INTNL FALLS    LGT RAIN  46  42  86 NE8G21    29.94R FOG
DULUTH         CLOUDY    50  43  77 E6        29.85S
RED WING       CLOUDY    54  46  76 W5        29.80S
REDWOOD FALLS  CLOUDY    50  45  83 NW8       29.85F
MANKATO        LGT RAIN  48  46  93 NW9       29.84R
WORTHINGTON    LGT RAIN  47  44  90 N12       29.87S
FAIRMONT       CLOUDY    49  43  80 N13       29.85S
$$

...SOUTHWEST WISCONSIN...


CITY           SKY/WX    TMP DP  RH WIND       PRES   REMARKS
LA CROSSE      CLOUDY    55  53  93 N9        29.77S
PRAIRIE DU CHI CLOUDY    55  52  89 SW5       29.77S
BOSCOBEL       CLOUDY    55  53  93 SW5       29.77S
LONE ROCK      CLOUDY    56  53  90 W3        29.76S FOG
PLATTEVILLE    CLOUDY    54  54 100 SW7       29.78S
FORT MC COY    CLOUDY    51  51 100 NE5       29.78S
CAMP DOUGLAS   CLOUDY    54  54 100 NW6       29.77S
MAUSTON-NEW LI CLOUDY    53  51  92 NW3       29.76S FOG
VIROQUA        CLOUDY    53  52  95 MISG      29.77S
WIS DELLS      CLOUDY    55  53  94 CALM      29.76S
$$

...ELSEWHERE IN WISCONSIN...


CITY           SKY/WX    TMP DP  RH WIND       PRES   REMARKS
MILWAUKEE      CLOUDY    63  54  72 SW8       29.79S
MADISON        CLOUDY    56  53  90 SW5       29.76S
GREEN BAY      CLOUDY    55  48  77 NE10      29.80S
EAU CLAIRE     LGT RAIN  50  48  93 NE8       29.81R
BLACK RVR FLS  CLOUDY    53  52  97 NE6       29.78S
MEDFORD        DRIZZLE   47  46  95 E8        29.82S
WAUSAU         CLOUDY    50  46  86 NE5       29.80S
WIS RAPIDS     CLOUDY    53  48  83 E6        29.79S
MARSHFIELD     CLOUDY    50  45  83 NE8       29.78S
RICE LAKE      CLOUDY    51  48  90 NE7       29.84R
$$

...NORTHEAST IOWA...


CITY           SKY/WX    TMP DP  RH WIND       PRES   REMARKS
WATERLOO       CLOUDY    53  50  89 NW7       29.80S
DUBUQUE        CLOUDY    54  51  90 W8        29.78S
DECORAH        CLOUDY    52  50  93 W5        29.77S
MASON CITY     CLOUDY    51  46  83 NW10      29.84R
CHARLES CITY   CLOUDY    54  52  94 NW12      29.81S
OELWEIN        CLOUDY    54  52  94 NW16      29.79F
$$

...ELSEWHERE IN IOWA...


CITY           SKY/WX    TMP DP  RH WIND       PRES   REMARKS
DES MOINES     MOSUNNY   56  48  74 N13       29.84S
IOWA CITY      CLOUDY    58  51  78 NW7       29.80F
FORT DODGE     CLOUDY    50  46  87 NW8       29.85S
MARSHALLTOWN   CLOUDY    54  51  90 NW12      29.81F
CEDAR RAPIDS   CLOUDY    53  53 100 NW12      29.79S
$$

...NORTHERN ILLINOIS...


CITY           SKY/WX    TMP DP  RH WIND       PRES   REMARKS
CHICAGO-OHARE  LGT RAIN  60  54  80 SW13G22   29.82R
CHICAGO-MIDWAY LGT RAIN  59  56  89 SW13G23   29.83R
MOLINE         CLOUDY    60  54  80 SW6       29.79S
ROCKFORD       CLOUDY    59  53  80 SW10      29.81S
PEORIA         LGT RAIN  57  55  93 CALM      29.82S
$$

NOTE: "FAIR" INDICATES FEW OR NO CLOUDS BELOW 12,000 FEET WITH NO
SIGNIFICANT WEATHER AND/OR OBSTRUCTIONS TO VISIBILITY. WIND
SPEEDS ARE IN MILES-PER-HOUR.




USA.gov is the U.S. government's official web portal to all federal, state and local government web resources and services.